CW6404 Weather Reports


time (UTC)temp
C
wind
direction
speed
KPH
gust
KPH
rain 1hr
cm
rain 24hr
cm
rain mn
cm
humidity
%
barometer
mb
20260505063706 16 187 0.0 8.0 0.00 0.00 0.00 73 1009.4
20260505063209 16 174 0.0 4.8 0.00 0.00 0.00 73 1009.3
20260505062706 16 167 0.0 4.8 0.00 0.00 0.00 73 1009.3
20260505062202 16 174 0.0 3.2 0.00 0.00 0.00 73 1009.3
20260505061924 16 176 0.0 3.2 0.00 0.00 0.00 73 1009.3
20260505061815 16 185 0.0 4.8 0.00 0.00 0.00 73 1009.4
20260505060925 16 187 0.0 4.8 0.00 0.00 0.00 73 1009.3
20260505060152 16 175 0.0 4.8 0.00 0.00 0.00 73 1009.4
20260505055653 16 171 0.0 3.2 0.00 0.00 0.00 73 1009.4
20260505055125 16 173 0.0 3.2 0.00 0.00 0.00 73 1009.3
20260505054836 16 173 0.0 3.2 0.00 0.00 0.00 73 1009.4
20260505054105 16 215 0.0 3.2 0.00 0.00 0.00 73 1009.4
20260505053557 16 185 0.0 3.2 0.00 0.00 0.00 72 1009.3
20260505053326 16 203 0.0 3.2 0.00 0.00 0.00 72 1009.3
20260505052552 16 169 0.0 3.2 0.00 0.00 0.00 72 1009.4
20260505052045 16 180 0.0 3.2 0.00 0.00 0.00 72 1009.4
20260505051533 16 184 0.0 1.6 0.00 0.00 0.00 72 1009.5
20260505051018 16 175 0.0 3.2 0.00 0.00 0.00 71 1009.5
20260505050502 16 191 0.0 3.2 0.00 0.00 0.00 71 1009.4
20260505041628 17 167 1.6 8.0 0.00 0.00 0.00 67 1009.6
20260505040855 17 175 0.0 4.8 0.00 0.00 0.00 67 1009.5
20260505040341 17 159 0.0 4.8 0.00 0.00 0.00 67 1009.5
20260505035833 17 157 0.0 4.8 0.00 0.00 0.00 67 1009.5
20260505035330 17 172 0.0 6.4 0.00 0.00 0.00 66 1009.6
20260505034827 17 165 0.0 6.4 0.00 0.00 0.00 66 1009.5
20260505034310 17 169 1.6 9.7 0.00 0.00 0.00 66 1009.4
20260505033815 17 161 0.0 9.7 0.00 0.00 0.00 65 1009.4
20260505033312 17 180 0.0 3.2 0.00 0.00 0.00 65 1009.4
20260505032758 17 162 0.0 3.2 0.00 0.00 0.00 64 1009.4
20260505032257 17 187 0.0 1.6 0.00 0.00 0.00 64 1009.3
20260505031750 17 165 0.0 4.8 0.00 0.00 0.00 63 1009.3
20260505031229 17 169 0.0 4.8 0.00 0.00 0.00 63 1009.4
20260505030731 17 174 0.0 3.2 0.00 0.00 0.00 62 1009.6
20260505030215 17 211 0.0 3.2 0.00 0.00 0.00 62 1009.5
20260505025658 17 170 0.0 3.2 0.00 0.00 0.00 61 1009.5
20260505025425 17 169 0.0 3.2 0.00 0.00 0.00 61 1009.4
20260505024638 17 182 0.0 3.2 0.00 0.00 0.00 60 1009.4
20260505024132 17 153 0.0 3.2 0.00 0.00 0.00 59 1009.4
20260505023631 17 154 0.0 3.2 0.00 0.00 0.00 58 1009.3
20260505023119 17 159 0.0 1.6 0.00 0.00 0.00 57 1009.4
20260505022847 17 161 0.0 1.6 0.00 0.00 0.00 56 1009.4
20260505022338 17 159 0.0 1.6 0.00 0.00 0.00 55 1009.4
20260505021603 18 157 0.0 1.6 0.00 0.00 0.00 54 1009.4
20260505021057 18 154 0.0 3.2 0.00 0.00 0.00 52 1009.4
20260505020602 18 167 0.0 1.6 0.00 0.00 0.00 50 1009.4
20260505020553 18 151 0.0 3.2 0.00 0.00 0.00 51 1009.4
20260505015752 18 158 0.0 1.6 0.00 0.00 0.00 49 1009.5
20260505015020 18 160 0.0 1.6 0.00 0.00 0.00 49 1009.5
20260505014459 18 154 0.0 1.6 0.00 0.00 0.00 48 1009.4
20260505013955 18 146 0.0 1.6 0.00 0.00 0.00 48 1009.4
20260505013432 18 126 0.0 1.6 0.00 0.00 0.00 48 1009.4
20260505012855 18 181 0.0 0.0 0.00 0.00 0.00 47 1009.4
20260505012353 18 181 0.0 0.0 0.00 0.00 0.00 47 1009.4
20260505011849 19 181 0.0 0.0 0.00 0.00 0.00 47 1009.3
20260505011339 19 184 0.0 1.6 0.00 0.00 0.00 46 1009.2
20260505011048 19 182 0.0 1.6 0.00 0.00 0.00 46 1009.1
20260505010305 19 204 0.0 0.0 0.00 0.00 0.00 45 1009.1
20260505005810 19 179 0.0 1.6 0.00 0.00 0.00 44 1009.0
20260505005301 19 174 0.0 11.3 0.00 0.00 0.00 43 1008.9
20260505004801 19 190 0.0 11.3 0.00 0.00 0.00 42 1008.9
20260505004529 20 161 0.0 1.6 0.00 0.00 0.00 42 1008.9
20260505003754 20 161 0.0 1.6 0.00 0.00 0.00 41 1008.8
20260505003255 20 173 0.0 1.6 0.00 0.00 0.00 41 1008.8
20260505003024 20 165 0.0 0.0 0.00 0.00 0.00 40 1008.9
20260505002528 20 165 0.0 0.0 0.00 0.00 0.00 40 1008.9
20260505002024 20 164 0.0 0.0 0.00 0.00 0.00 39 1009.0
20260505001517 20 163 0.0 0.0 0.00 0.00 0.00 38 1009.0
20260505000748 21 152 0.0 0.0 0.00 0.00 0.00 38 1009.0
20260505000223 21 150 0.0 0.0 0.00 0.00 0.00 38 1009.0
20260505000211 21 150 0.0 0.0 0.00 0.00 0.00 37 1008.9
20260504235434 21 185 0.0 1.6 0.00 0.00 0.00 37 1009.0
20260504234703 21 186 0.0 3.2 0.00 0.00 0.00 36 1009.0
20260504234206 21 195 0.0 16.1 0.00 0.00 0.00 36 1009.0
20260504233937 22 196 1.6 20.9 0.00 0.00 0.00 36 1009.0
20260504233202 22 182 0.0 20.9 0.00 0.00 0.00 35 1009.0
20260504232703 22 173 0.0 14.5 0.00 0.00 0.00 35 1008.9
20260504232157 22 179 1.6 14.5 0.00 0.00 0.00 35 1008.9
20260504231656 22 184 1.6 14.5 0.00 0.00 0.00 35 1008.8
20260504231427 22 177 1.6 14.5 0.00 0.00 0.00 35 1008.8
20260504230926 23 169 0.0 4.8 0.00 0.00 0.00 35 1008.7
20260504230157 23 202 1.6 14.5 0.00 0.00 0.00 35 1008.7
20260504225648 23 157 1.6 14.5 0.00 0.00 0.00 34 1008.8
20260504225147 23 163 0.0 4.8 0.00 0.00 0.00 35 1008.7
20260504224656 23 171 3.2 17.7 0.00 0.00 0.00 34 1008.7
20260504224647 23 183 1.6 17.7 0.00 0.00 0.00 34 1008.7
20260504223643 23 217 1.6 14.5 0.00 0.00 0.00 33 1008.7
20260504223135 23 173 1.6 14.5 0.00 0.00 0.00 33 1008.7
20260504222635 23 173 1.6 16.1 0.00 0.00 0.00 33 1008.6
20260504222133 23 232 1.6 16.1 0.00 0.00 0.00 33 1008.6
20260504221633 24 219 1.6 12.9 0.00 0.00 0.00 32 1008.5
20260504221133 24 164 1.6 17.7 0.00 0.00 0.00 32 1008.7
20260504220630 24 150 3.2 19.3 0.00 0.00 0.00 32 1008.6
20260504220125 24 258 3.2 19.3 0.00 0.00 0.00 31 1008.5
20260504215624 24 160 3.2 14.5 0.00 0.00 0.00 31 1008.5
20260504215122 24 173 1.6 19.3 0.00 0.00 0.00 31 1008.7
20260504214622 24 188 3.2 19.3 0.00 0.00 0.00 31 1008.7
20260504214115 24 190 4.8 24.1 0.00 0.00 0.00 31 1008.7
20260504213615 24 213 4.8 24.1 0.00 0.00 0.00 31 1008.8
20260504213115 24 192 3.2 16.1 0.00 0.00 0.00 32 1008.8
20260504212614 24 158 1.6 14.5 0.00 0.00 0.00 32 1008.8
20260504212114 23 241 3.2 17.7 0.00 0.00 0.00 31 1008.8
20260504211608 23 163 3.2 17.7 0.00 0.00 0.00 31 1008.8
20260504211105 23 273 6.4 19.3 0.00 0.00 0.00 32 1008.8
20260504210604 23 246 4.8 19.3 0.00 0.00 0.00 30 1008.8
20260504210336 23 211 1.6 11.3 0.00 0.00 0.00 33 1008.8
20260504205605 23 216 3.2 19.3 0.00 0.00 0.00 33 1008.9
20260504205103 23 274 3.2 19.3 0.00 0.00 0.00 31 1008.9
20260504204604 23 232 1.6 14.5 0.00 0.00 0.00 31 1009.0
20260504204053 23 240 3.2 16.1 0.00 0.00 0.00 31 1009.0
20260504203542 23 176 4.8 20.9 0.00 0.00 0.00 31 1009.1
20260504203038 23 193 3.2 20.9 0.00 0.00 0.00 31 1009.0
20260504202539 23 153 3.2 17.7 0.00 0.00 0.00 31 1009.3
20260504202038 23 217 1.6 17.7 0.00 0.00 0.00 30 1009.2
20260504201535 23 215 3.2 17.7 0.00 0.00 0.00 32 1009.2
20260504201030 23 221 6.4 19.3 0.00 0.00 0.00 31 1009.3
20260504200526 23 251 4.8 19.3 0.00 0.00 0.00 31 1009.3
20260504200027 23 255 3.2 16.1 0.00 0.00 0.00 32 1009.3
20260504195525 23 238 4.8 16.1 0.00 0.00 0.00 31 1009.3
20260504195024 23 248 3.2 16.1 0.00 0.00 0.00 31 1009.4
20260504194525 23 274 3.2 16.1 0.00 0.00 0.00 32 1009.4
20260504194023 23 252 4.8 17.7 0.00 0.00 0.00 32 1009.7
20260504193522 23 240 3.2 17.7 0.00 0.00 0.00 31 1009.6
20260504193022 23 281 1.6 11.3 0.00 0.00 0.00 32 1009.7
20260504192522 23 219 1.6 8.0 0.00 0.00 0.00 30 1009.7
20260504192011 23 275 1.6 8.0 0.00 0.00 0.00 30 1009.9
20260504191505 23 182 4.8 17.7 0.00 0.00 0.00 31 1009.9
20260504191003 23 172 6.4 22.5 0.00 0.00 0.00 29 1009.9
20260504190735 23 252 4.8 27.4 0.00 0.00 0.00 31 1009.9
20260504190002 23 290 4.8 27.4 0.00 0.00 0.00 31 1010.0
20260504185512 22 212 3.2 17.7 0.00 0.00 0.00 31 1010.1
20260504185501 23 171 4.8 17.7 0.00 0.00 0.00 31 1010.0
20260504184733 23 299 3.2 17.7 0.00 0.00 0.00 30 1010.2
20260504184227 22 229 3.2 17.7 0.00 0.00 0.00 32 1010.2
20260504183456 23 223 4.8 17.7 0.00 0.00 0.00 30 1010.2
20260504182954 23 254 4.8 14.5 0.00 0.00 0.00 30 1010.3
20260504182454 22 219 3.2 14.5 0.00 0.00 0.00 31 1010.3
20260504181954 22 252 3.2 11.3 0.00 0.00 0.00 32 1010.5
20260504181452 22 304 3.2 11.3 0.00 0.00 0.00 29 1010.7
20260504180950 22 252 3.2 11.3 0.00 0.00 0.00 31 1010.6
20260504180440 22 254 1.6 11.3 0.00 0.00 0.00 30 1010.7
20260504175929 22 255 1.6 8.0 0.00 0.00 0.00 30 1010.8
20260504175427 22 309 1.6 16.1 0.00 0.00 0.00 32 1010.8
20260504174922 22 278 3.2 22.5 0.00 0.00 0.00 29 1010.8
20260504174652 22 236 3.2 22.5 0.00 0.00 0.00 32 1010.9
20260504174156 22 215 1.6 11.3 0.00 0.00 0.00 33 1011.0
20260504173414 22 258 1.6 8.0 0.00 0.00 0.00 32 1011.0
20260504173143 22 302 3.2 9.7 0.00 0.00 0.00 32 1011.1
20260504172413 22 284 3.2 14.5 0.00 0.00 0.00 31 1011.2
20260504171916 22 265 3.2 14.5 0.00 0.00 0.00 33 1011.3
20260504171413 21 306 1.6 11.3 0.00 0.00 0.00 31 1011.4
20260504170912 21 283 1.6 16.1 0.00 0.00 0.00 31 1011.5
20260504170409 22 280 3.2 16.1 0.00 0.00 0.00 31 1011.6
20260504160353 20 204 3.2 24.1 0.00 0.00 0.00 36 1012.0
20260504150832 19 229 1.6 8.0 0.00 0.00 0.00 44 1012.4
20260504150331 19 236 3.2 11.3 0.00 0.00 0.00 41 1012.4
20260504141251 17 180 3.2 19.3 0.00 0.00 0.00 50 1012.7
20260504140749 17 213 3.2 11.3 0.00 0.00 0.00 52 1012.8
20260504140250 17 229 3.2 16.1 0.00 0.00 0.00 52 1012.8
20260504130742 16 225 3.2 16.1 0.00 0.00 0.00 65 1013.3
20260504130240 15 204 1.6 16.1 0.00 0.00 0.00 64 1013.3
20260504120222 12 174 0.0 4.8 0.00 0.00 0.00 81 1013.7
20260504110133 11 208 0.0 6.4 0.00 0.00 0.00 83 1014.0
20260504100542 10 225 0.0 4.8 0.00 0.00 0.00 82 1014.0
20260504081851 9 171 1.6 14.5 0.00 0.00 0.00 79 1014.0
20260504081351 9 168 1.6 8.0 0.00 0.00 0.00 78 1013.9
20260504080848 9 172 1.6 8.0 0.00 0.00 0.00 78 1014.0
20260504080617 8 168 1.6 8.0 0.00 0.00 0.00 78 1014.0
20260504080111 8 169 1.6 8.0 0.00 0.00 0.00 77 1014.0